Probability
0 0 0 0 0 0 0 0 0 0 0 3 6 10 23 23 23 26 23 19 26 26 29 32 29 26 35 35 45 45 42 39 35 29 23 23 19 16 16 16 16 16 13 10
0 0 0 0 0 0 0 0 0 0 0 0 6 13 23 29 26 26 23 23 23 32 39 32 29 29 29 29 42 42 42 35 29 23 23 23 19 19 16 13 13 10 10 10
0 0 0 0 0 0 0 0 0 0 0 0 10 13 19 23 29 26 23 19 26 35 32 29 32 26 26 32 42 42 39 39 32 23 23 19 23 19 13 13 10 6 6 6
0 0 0 0 0 0 0 0 0 0 0 6 13 16 19 26 29 23 26 26 32 35 39 35 32 35 35 39 42 35 35 32 29 23 26 26 16 16 13 13 6 6 6 6
0 0 0 0 3 3 3 6 6 6 3 10 19 23 26 29 26 29 29 32 32 35 39 39 39 42 35 35 32 29 29 26 23 19 19 16 16 13 16 6 6 6 6 6
0 0 0 0 0 0 3 3 10 6 6 16 19 19 19 26 26 29 26 26 26 29 26 29 35 35 32 32 32 32 29 23 19 19 16 13 13 10 13 6 6 6 6 6
0 0 0 0 3 0 0 0 6 6 6 16 19 10 16 23 26 26 23 26 23 23 23 23 29 29 26 29 29 26 26 23 19 13 16 13 13 10 10 6 6 6 6 6
0 0 0 0 10 0 0 0 6 10 13 19 16 16 13 16 23 26 29 26 23 29 32 26 26 32 29 26 23 23 23 19 16 16 13 13 13 6 10 6 6 6 6 6
0 0 0 0 3 3 3 10 10 13 10 10 16 13 23 29 26 29 32 26 23 29 29 26 32 29 32 23 19 23 19 16 16 13 10 13 13 10 10 6 6 6 6 6
3 3 3 3 6 6 13 16 19 13 13 23 16 19 23 23 26 29 26 23 26 26 26 23 29 29 29 23 23 23 16 16 13 13 13 10 6 10 10 6 6 6 6 6
3 3 6 13 6 13 13 16 19 16 19 19 19 19 19 19 19 23 26 26 26 23 23 23 19 23 19 19 23 19 13 13 13 13 13 6 6 10 6 6 6 6 6 6
6 10 6 6 6 16 23 19 23 23 13 19 19 19 19 16 16 19 23 29 26 23 19 23 19 16 16 16 23 16 16 13 13 13 13 6 10 6 3 0 3 3 3 3
0 0 6 6 10 16 19 19 16 16 13 13 13 16 16 19 19 23 26 32 29 26 19 13 19 19 16 19 19 19 19 13 13 13 13 13 13 6 3 3 0 0 0 0
0 3 6 6 10 10 6 3 6 6 10 13 16 19 19 19 16 23 23 26 26 26 23 16 19 19 16 19 23 16 19 13 16 16 10 10 13 6 3 3 3 3 0 0
6 3 6 6 3 3 3 3 3 6 6 10 13 16 19 19 13 10 16 16 23 23 19 19 23 16 16 16 16 10 10 10 13 6 6 10 6 6 0 0 0 0 3 3
3 6 6 3 3 0 3 3 0 3 3 6 10 6 10 13 13 10 13 19 19 16 13 19 19 16 16 16 13 13 13 6 6 3 3 3 3 0 0 0 0 0 3 3
6 6 3 0 0 3 0 0 0 0 3 6 3 6 6 10 13 10 13 16 13 13 13 13 16 13 16 13 13 13 10 6 6 3 3 3 3 3 0 0 0 0 3 3
0 0 3 3 0 0 0 0 0 3 3 6 3 6 6 6 3 6 10 13 13 16 13 13 10 13 10 6 6 6 6 6 3 3 3 3 3 3 0 0 0 3 3 3
3 3 0 0 0 0 0 0 0 0 3 3 6 3 3 3 3 3 13 16 16 16 13 6 6 6 6 10 6 6 6 6 3 3 3 3 3 3 0 0 0 0 0 0
3 3 0 0 0 0 0 0 0 3 3 3 3 3 3 3 6 10 13 13 13 13 10 3 6 10 6 6 3 6 6 6 3 0 0 0 0 0 0 0 0 0 3 3
0 0 0 0 0 0 0 0 3 3 3 3 3 3 3 3 6 10 10 13 13 10 3 3 3 6 6 6 3 6 6 3 3 0 0 0 0 0 0 0 0 0 0 0
0 0 0 0 3 3 3 3 3 3 3 3 3 3 3 3 3 10 10 10 6 3 3 3 6 6 6 3 6 6 6 6 6 6 0 0 0 0 0 0 0 0 0 0
0 0 3 3 6 6 3 3 3 3 3 3 3 3 3 3 6 6 6 6 3 3 3 3 6 6 3 6 6 6 6 6 6 6 0 0 0 0 0 0 0 0 0 0
0 0 3 6 3 3 3 3 3 3 3 3 3 3 3 6 3 3 3 0 0 3 3 0 0 0 0 3 3 3 3 3 3 3 0 0 0 0 0 0 0 0 0 0
3 3 3 3 3 3 3 0 0 0 0 0 0 3 3 3 3 0 0 0 0 0 0 0 0 0 0 3 3 3 3 3 3 3 3 0 0 0 0 0 0 0 0 0
3 3 0 0 0 0 0 0 0 0 0 0 3 0 0 0 0 0 0 0 0 0 0 0 0 0 0 3 3 3 3 3 3 0 0 0 0 0 0 0 0 0 0 0
0 0 0 0 0 0 0 0 0 0 0 3 0 0 0 0 0 0 0 0 0 0 0 0 0 0 3 3 0 0 0 0 0 0 0 0 0 0 0 0 0 0 0 0
Height
5853 5857 5861 5865 5868 5872 5875 5878 5882 5886 5889 5893 5895 5898 5900 5901 5902 5903 5903 5904 5904 5904 5904 5904 5903 5903 5902 5902 5901 5900 5899 5898 5897 5896 5895 5893 5892 5890 5888 5886 5884 5881 5879 5877
5846 5850 5854 5858 5862 5866 5869 5873 5876 5880 5884 5887 5890 5892 5894 5896 5898 5899 5900 5900 5900 5900 5900 5900 5900 5899 5899 5899 5899 5898 5897 5896 5895 5894 5893 5891 5890 5888 5886 5884 5882 5879 5877 5875
5839 5843 5846 5851 5856 5860 5863 5867 5871 5874 5879 5881 5884 5887 5889 5892 5893 5894 5895 5896 5896 5896 5896 5896 5896 5896 5896 5895 5895 5894 5894 5893 5892 5891 5890 5888 5887 5885 5883 5881 5879 5877 5875 5872
5831 5836 5839 5847 5849 5853 5856 5861 5864 5868 5872 5875 5878 5881 5884 5886 5888 5889 5890 5890 5891 5891 5891 5891 5892 5892 5892 5892 5892 5891 5890 5890 5889 5888 5886 5885 5883 5882 5880 5878 5876 5874 5872 5869
5824 5827 5832 5838 5842 5846 5849 5854 5858 5861 5865 5868 5871 5874 5877 5880 5882 5883 5884 5885 5885 5885 5886 5887 5887 5888 5888 5888 5888 5888 5887 5886 5886 5884 5883 5881 5880 5878 5876 5874 5873 5870 5868 5866
5817 5820 5824 5832 5835 5838 5843 5846 5851 5855 5858 5861 5864 5868 5872 5874 5876 5877 5878 5879 5879 5879 5882 5882 5882 5883 5883 5884 5884 5884 5883 5882 5881 5880 5879 5877 5876 5874 5872 5870 5868 5866 5864 5861
5809 5812 5817 5823 5827 5832 5836 5841 5844 5847 5851 5854 5857 5861 5865 5867 5869 5871 5872 5873 5874 5875 5876 5877 5877 5878 5878 5878 5878 5878 5878 5878 5877 5875 5874 5873 5872 5870 5868 5866 5864 5862 5859 5857
5801 5805 5812 5815 5819 5824 5828 5832 5836 5840 5843 5847 5850 5853 5857 5860 5862 5864 5865 5867 5868 5869 5870 5871 5871 5872 5873 5873 5873 5873 5873 5872 5871 5870 5869 5868 5867 5865 5863 5861 5858 5856 5854 5851
5794 5800 5804 5807 5811 5815 5819 5824 5828 5832 5836 5839 5843 5846 5849 5852 5855 5857 5858 5859 5860 5862 5863 5865 5865 5865 5866 5866 5866 5866 5866 5866 5865 5864 5863 5862 5861 5859 5857 5855 5852 5850 5848 5845
5786 5791 5795 5799 5803 5807 5811 5816 5820 5824 5828 5831 5835 5838 5841 5844 5847 5848 5851 5852 5854 5855 5856 5857 5857 5857 5858 5859 5860 5859 5859 5859 5858 5858 5857 5855 5854 5852 5850 5848 5846 5843 5841 5839
5777 5782 5787 5791 5795 5799 5803 5808 5812 5816 5819 5823 5826 5829 5832 5835 5838 5840 5842 5845 5846 5847 5848 5849 5850 5851 5852 5852 5853 5853 5852 5852 5851 5850 5849 5848 5847 5845 5843 5841 5839 5837 5834 5832
5770 5774 5779 5783 5787 5791 5795 5799 5803 5807 5811 5814 5817 5820 5823 5826 5829 5831 5834 5836 5837 5838 5840 5841 5842 5843 5843 5844 5845 5845 5845 5844 5843 5843 5842 5840 5839 5838 5836 5834 5832 5829 5827 5825
5762 5766 5770 5775 5779 5782 5786 5790 5794 5798 5802 5805 5808 5810 5813 5816 5819 5822 5824 5826 5828 5830 5831 5832 5833 5834 5835 5836 5837 5837 5837 5836 5836 5835 5834 5832 5831 5830 5828 5826 5824 5822 5820 5817
5754 5758 5762 5767 5770 5774 5777 5780 5784 5788 5792 5795 5798 5801 5804 5806 5809 5812 5814 5816 5818 5820 5821 5822 5824 5825 5826 5827 5828 5828 5828 5828 5827 5826 5825 5824 5823 5821 5820 5818 5817 5814 5812 5809
5746 5750 5754 5758 5761 5764 5768 5771 5775 5778 5782 5785 5788 5791 5793 5796 5798 5801 5803 5805 5807 5809 5812 5814 5815 5816 5817 5818 5819 5819 5819 5819 5818 5818 5817 5815 5814 5813 5812 5810 5808 5806 5804 5802
5738 5742 5746 5749 5752 5756 5759 5762 5766 5769 5772 5774 5777 5780 5783 5785 5787 5790 5792 5795 5797 5799 5802 5804 5806 5807 5808 5809 5810 5810 5810 5810 5810 5809 5808 5807 5806 5804 5803 5801 5799 5797 5795 5793
5731 5735 5738 5741 5745 5748 5750 5753 5757 5759 5762 5765 5768 5770 5772 5775 5777 5780 5783 5785 5787 5790 5792 5794 5796 5798 5799 5800 5801 5801 5802 5802 5801 5801 5799 5798 5797 5796 5794 5792 5791 5789 5786 5784
5724 5727 5731 5734 5737 5739 5742 5745 5749 5751 5754 5756 5759 5761 5763 5766 5768 5771 5774 5776 5778 5780 5782 5784 5786 5788 5790 5791 5792 5792 5793 5793 5792 5792 5791 5789 5788 5787 5785 5784 5782 5780 5778 5776
5717 5720 5723 5726 5728 5731 5735 5738 5741 5743 5745 5747 5749 5752 5754 5757 5760 5762 5765 5767 5769 5771 5773 5775 5777 5779 5780 5782 5783 5783 5783 5783 5783 5782 5781 5780 5779 5777 5776 5775 5773 5771 5769 5767
5710 5713 5716 5719 5722 5724 5727 5730 5733 5735 5737 5739 5742 5744 5746 5749 5751 5754 5756 5759 5760 5762 5764 5766 5768 5769 5771 5772 5773 5774 5774 5774 5774 5773 5772 5771 5770 5768 5767 5765 5764 5762 5760 5758
5704 5707 5710 5713 5715 5718 5720 5723 5725 5728 5730 5732 5735 5737 5739 5742 5744 5746 5748 5751 5752 5754 5756 5758 5760 5761 5762 5763 5765 5765 5765 5765 5764 5764 5763 5762 5761 5759 5758 5756 5755 5753 5751 5749
5699 5702 5705 5707 5709 5712 5714 5717 5719 5721 5724 5726 5728 5731 5733 5735 5737 5739 5741 5743 5745 5747 5749 5750 5752 5754 5755 5755 5756 5757 5757 5756 5756 5755 5754 5753 5752 5750 5749 5747 5746 5744 5742 5740
5695 5697 5700 5702 5705 5707 5709 5711 5713 5716 5718 5720 5723 5725 5727 5729 5731 5733 5735 5736 5738 5740 5742 5744 5745 5746 5747 5748 5748 5748 5748 5747 5747 5746 5745 5744 5743 5742 5740 5739 5737 5735 5733 5731
5690 5693 5695 5697 5700 5702 5704 5706 5708 5710 5713 5715 5717 5719 5721 5723 5725 5726 5728 5730 5732 5733 5735 5736 5737 5738 5739 5740 5740 5740 5739 5739 5739 5738 5737 5736 5735 5733 5731 5730 5728 5727 5725 5723
5686 5688 5690 5692 5695 5697 5699 5701 5703 5705 5707 5709 5711 5712 5714 5716 5718 5720 5721 5722 5723 5724 5726 5727 5729 5730 5731 5731 5731 5731 5731 5731 5730 5730 5729 5728 5726 5725 5723 5722 5720 5719 5717 5715
5681 5683 5684 5687 5689 5691 5693 5695 5697 5700 5701 5703 5704 5705 5707 5708 5710 5712 5713 5714 5715 5717 5718 5719 5720 5722 5722 5723 5723 5723 5723 5723 5722 5721 5721 5720 5718 5717 5715 5714 5712 5711 5709 5707
5676 5677 5679 5681 5682 5684 5686 5689 5691 5694 5695 5697 5698 5699 5700 5701 5703 5704 5705 5707 5708 5709 5710 5712 5713 5714 5714 5715 5715 5715 5715 5715 5714 5713 5713 5711 5710 5708 5707 5705 5704 5703 5701 5699
Wind_Speed
33 33 34 34 33 33 33 32 30 28 26 23 22 21 20 18 16 15 13 11 11 10 9 9 9 10 10 10 10 10 9 9 10 11 11 12 13 13 13 14 14 14 14 14
34 33 34 35 34 33 33 32 31 29 27 24 24 22 21 19 18 16 15 13 13 12 11 10 10 12 11 11 11 11 10 11 11 12 13 14 14 14 14 15 15 15 15 15
35 34 34 36 35 34 33 33 32 30 27 25 24 23 21 19 18 18 16 15 14 14 13 12 12 12 11 11 11 12 12 12 13 13 14 15 15 15 15 15 16 16 16 17
35 35 36 35 34 34 34 34 33 30 28 27 26 24 22 21 19 18 17 17 16 16 15 15 14 13 12 12 13 13 13 14 14 15 15 15 15 16 16 16 17 17 18 18
36 36 35 35 34 34 33 33 33 32 30 28 27 26 24 23 21 20 19 19 19 17 17 17 16 15 14 14 14 14 15 15 15 16 16 16 16 17 17 18 18 19 19 19
37 36 36 34 34 34 33 33 32 32 31 29 28 28 26 24 23 21 21 21 21 19 19 18 18 16 15 16 16 16 16 16 16 17 17 18 18 19 19 20 20 21 21 20
37 37 36 35 34 33 35 33 31 31 32 32 30 28 26 25 24 22 22 22 23 22 20 19 19 19 18 19 19 18 18 18 17 18 19 19 20 20 21 22 22 22 22 22
37 37 36 34 34 35 34 32 33 32 32 32 31 30 28 27 26 24 23 23 24 24 21 21 21 22 21 20 20 20 20 19 19 20 21 21 22 22 23 23 24 23 23 23
38 37 35 34 34 35 34 33 32 32 32 32 31 30 30 29 28 27 26 25 25 25 23 23 24 25 24 22 22 22 22 21 21 22 22 23 24 25 25 25 25 25 25 25
38 37 36 34 34 34 34 33 33 32 32 33 32 31 30 29 29 29 27 27 28 27 26 25 25 25 23 23 23 23 23 24 24 24 25 26 27 27 26 26 27 27 27 26
36 37 37 36 35 35 34 34 34 33 33 33 33 33 33 32 32 30 28 29 30 30 29 28 27 26 25 24 25 25 25 26 26 27 27 27 28 28 28 28 28 28 28 27
35 35 35 34 35 36 36 36 36 35 34 34 34 33 34 34 33 33 32 33 33 32 31 31 30 29 28 27 26 27 27 28 28 28 28 29 29 29 29 29 29 29 28 28
34 34 34 34 35 36 37 37 38 37 35 35 35 34 34 35 35 35 35 35 34 33 32 32 31 29 28 28 27 28 29 29 29 29 28 29 30 30 30 30 30 30 30 30
35 35 34 33 34 35 35 36 37 37 35 35 34 34 34 34 35 35 36 35 34 34 32 31 31 31 30 29 30 30 30 31 30 30 30 30 30 30 30 30 30 30 30 30
33 33 33 33 33 33 34 35 36 36 37 37 36 35 34 33 34 34 34 34 34 34 33 33 32 32 31 31 30 30 30 30 30 30 30 30 30 30 30 30 30 30 31 30
34 34 34 33 32 32 33 33 34 35 36 36 35 35 33 32 33 34 34 34 34 33 33 33 33 33 33 32 31 31 29 29 29 29 29 29 29 30 31 31 30 30 30 30
33 33 33 32 32 32 31 31 31 32 33 33 34 34 33 32 32 32 32 33 34 33 33 33 33 33 34 33 32 31 30 30 30 30 30 30 30 31 31 30 30 30 30 30
31 31 32 31 32 32 32 32 31 30 30 31 32 31 30 29 30 30 31 33 33 33 33 33 33 34 33 32 32 31 31 31 31 31 32 32 32 32 31 30 30 30 29 29
29 29 29 29 31 32 32 32 32 31 30 30 29 29 28 28 29 31 31 32 31 30 32 33 33 33 33 32 32 32 31 31 31 31 31 32 32 31 31 31 31 31 30 29
28 28 28 28 28 29 30 30 30 29 29 28 26 25 26 27 27 29 30 30 30 30 31 32 32 32 32 31 31 31 30 30 30 30 30 31 31 31 31 31 31 31 30 29
25 26 26 25 25 25 25 26 26 26 26 25 25 24 24 24 25 26 27 27 28 28 29 30 30 29 29 28 28 29 28 29 29 29 29 29 29 30 30 30 30 29 29 29
22 23 22 21 21 21 21 22 22 23 23 23 23 23 23 23 24 24 25 25 25 27 27 28 27 27 27 28 27 27 27 28 28 29 29 29 29 29 29 29 29 29 29 30
20 20 19 19 19 19 19 20 20 21 21 21 22 23 23 23 23 24 24 25 25 26 27 28 28 27 27 28 28 28 28 28 28 28 28 28 28 28 29 29 29 29 30 29
19 19 19 19 19 19 19 19 19 20 20 20 21 22 23 23 23 23 24 24 25 26 27 27 27 28 27 27 28 28 27 27 27 27 27 28 28 28 28 28 28 29 29 28
18 19 20 20 20 19 19 19 19 19 20 20 21 21 23 24 24 24 23 24 24 25 26 27 28 28 28 27 27 27 27 26 27 27 27 27 28 27 27 27 27 27 27 28
18 19 20 20 20 20 20 20 19 19 20 20 22 22 23 24 25 26 25 25 25 25 26 26 27 27 27 26 26 26 26 26 27 27 27 27 27 26 26 26 26 27 27 27
17 17 18 18 19 19 20 21 21 21 21 20 21 21 22 23 23 24 25 25 26 26 26 26 27 27 26 25 25 25 26 26 27 27 27 27 27 27 27 27 27 27 27 27
Wind_Direction
226 228 229 230 232 235 238 242 245 247 247 247 249 248 250 255 261 260 260 263 267 272 279 286 292 292 289 291 298 302 305 310 317 320 324 326 327 328 330 330 330 331 332 331
227 228 230 230 231 234 238 241 245 246 247 248 250 250 250 253 257 257 258 261 266 270 275 280 287 290 282 288 291 296 299 304 307 312 317 320 321 321 322 324 325 326 326 327
229 229 231 231 231 235 238 241 244 245 246 246 249 252 252 252 254 254 258 262 266 268 269 272 283 287 287 286 289 294 296 299 304 305 309 313 315 316 317 318 319 320 320 321
231 231 233 233 233 236 238 240 242 244 244 245 248 250 251 251 251 252 258 263 264 263 264 266 273 275 278 284 287 288 290 293 298 302 304 306 308 310 312 312 313 313 312 314
233 234 235 234 235 237 239 241 242 243 245 246 247 248 249 251 252 252 254 257 258 259 263 265 266 267 269 279 283 285 288 290 293 297 300 303 305 305 306 307 308 308 308 308
234 236 237 236 237 238 240 242 241 242 243 243 246 249 249 251 253 255 253 254 254 256 262 265 267 269 271 275 281 282 285 288 291 294 297 299 301 303 304 305 306 306 306 305
235 238 238 238 238 239 240 241 240 242 243 243 245 249 248 249 253 255 254 253 254 257 260 267 271 271 270 273 278 279 281 286 291 294 296 297 300 303 303 303 303 304 303 303
237 238 239 239 240 240 241 239 240 241 242 244 245 247 247 249 252 253 253 251 252 254 259 265 268 270 272 277 279 279 282 285 290 293 295 296 298 300 301 301 301 300 300 301
237 240 241 241 241 240 240 239 239 240 241 241 242 244 247 249 251 251 250 250 253 256 259 264 267 270 270 273 276 279 283 286 289 291 292 294 295 297 297 298 298 297 298 299
238 239 240 241 242 241 241 241 240 241 242 242 242 243 245 247 250 249 249 251 254 257 260 263 267 269 266 269 275 279 281 283 286 289 290 291 293 294 294 295 296 296 295 297
239 239 240 239 241 242 241 241 241 242 242 243 243 243 245 247 249 249 250 252 254 257 259 261 265 268 268 270 275 279 281 281 283 286 288 290 291 292 292 293 294 296 296 296
237 238 239 239 240 240 241 241 241 242 242 243 245 244 245 247 249 251 253 253 255 258 260 260 263 267 268 269 274 278 280 282 283 283 285 288 290 290 291 292 293 294 296 297
235 237 239 240 240 241 242 241 241 241 243 245 245 245 247 248 248 249 251 254 256 257 261 262 263 265 266 268 272 276 279 281 281 282 283 286 288 288 290 291 292 293 295 296
236 237 238 238 240 241 241 241 241 242 243 246 247 248 250 250 248 248 250 252 254 256 258 259 261 264 266 271 273 275 279 279 277 278 281 284 286 287 288 289 290 291 293 295
236 237 237 239 242 242 242 243 243 243 244 246 247 247 248 250 249 249 251 252 254 256 258 260 262 265 265 268 272 275 278 278 278 279 281 282 284 286 288 290 291 291 291 292
237 238 238 240 241 241 241 242 243 245 245 246 247 247 247 249 250 251 252 253 254 256 257 260 263 265 266 268 270 275 277 278 280 282 282 283 285 288 288 290 291 292 292 292
238 239 239 241 241 242 243 243 245 247 246 247 247 248 248 249 250 250 251 252 253 255 256 257 260 264 266 267 270 272 275 277 279 281 282 284 285 287 288 288 290 292 292 291
239 239 240 242 242 243 244 245 246 248 248 248 249 248 248 249 249 249 250 252 253 253 254 255 258 263 264 265 268 272 274 276 278 281 283 284 285 286 287 287 288 290 291 291
238 239 241 243 243 244 245 247 247 250 251 250 249 248 249 249 248 249 251 251 251 251 253 255 258 260 262 265 268 271 272 275 278 280 282 283 283 284 285 286 287 288 288 289
237 238 239 241 243 244 245 246 247 250 251 249 248 247 246 246 249 250 249 250 253 254 255 256 259 260 262 264 266 269 271 274 277 279 280 281 283 284 285 286 287 288 288 289
236 236 236 238 240 242 244 245 247 247 248 246 244 245 246 246 248 250 251 251 253 253 255 257 257 259 261 263 266 269 271 273 276 277 278 280 282 283 284 285 287 288 289 290
233 232 234 238 240 242 243 246 246 245 244 245 245 246 246 248 249 250 250 250 252 252 253 253 255 258 261 264 266 268 271 273 275 276 277 279 281 283 284 284 286 288 290 291
231 232 235 238 239 240 241 244 244 243 244 244 244 246 247 248 250 251 251 251 252 255 257 257 258 260 263 265 267 269 270 273 274 276 277 279 281 283 285 284 285 287 289 291
233 234 235 237 237 238 240 243 243 242 243 246 248 247 247 249 251 251 252 255 257 258 258 258 259 261 263 266 268 269 271 272 274 276 277 278 280 282 284 283 285 287 289 290
238 237 236 236 237 239 240 242 241 242 246 250 252 253 251 251 252 251 251 253 255 256 256 257 258 261 265 267 268 269 270 272 273 275 278 280 281 282 283 284 286 287 288 289
239 240 241 241 242 243 242 242 244 247 250 253 254 253 252 253 253 253 252 253 256 256 256 257 259 262 264 265 268 269 270 272 275 277 280 282 283 283 283 284 285 287 289 290
239 238 239 240 242 242 243 243 244 247 251 255 257 256 255 255 256 255 255 255 255 256 258 259 260 262 264 266 266 267 270 274 276 278 281 282 283 284 284 283 284 286 289 291